Vorticity
nan nan nan nan nan nan nan nan nan nan nan nan nan nan nan nan nan nan nan nan nan nan nan nan nan nan nan nan nan nan nan nan nan nan nan nan nan nan nan nan nan nan nan nan nan nan nan nan nan nan nan nan nan nan nan nan nan nan nan nan nan nan nan nan nan nan nan nan nan
nan 10 10 11 10 10 10 10 10 10 11 11 11 10 11 10 10 10 12 13 13 11 10 9 9 10 10 10 9 8 8 8 7 7 6 6 7 7 6 6 6 6 6 6 7 7 6 6 7 7 7 7 7 8 10 11 13 12 11 8 8 9 9 10 10 10 10 9 nan
nan 10 11 11 12 11 11 10 9 10 10 10 10 10 10 9 8 8 9 10 10 10 9 8 8 8 7 7 8 8 8 7 6 6 5 4 5 6 6 6 5 6 6 6 6 6 5 6 7 8 7 7 7 8 10 13 12 11 10 9 8 8 8 9 11 11 10 10 nan
nan 10 10 10 10 10 10 9 8 8 8 9 9 10 10 9 8 8 8 8 8 8 9 10 8 7 6 7 9 9 8 7 6 5 5 5 5 6 6 6 5 5 5 5 5 5 5 5 7 9 10 9 10 10 9 10 10 9 9 10 9 9 8 9 10 10 9 10 nan
nan 9 9 9 9 9 9 9 8 8 8 9 10 10 9 9 9 9 9 8 9 10 11 11 9 8 8 9 8 8 8 7 5 5 6 7 7 6 5 5 5 5 5 5 5 5 5 6 7 9 11 11 10 10 9 8 8 8 8 9 9 10 10 10 10 10 9 9 nan
nan 8 8 8 9 10 10 10 9 8 9 10 11 11 10 10 11 11 11 10 10 10 9 8 9 10 10 9 8 7 6 6 7 8 8 7 6 6 5 5 5 5 5 5 6 7 8 7 6 8 10 10 9 9 9 10 9 9 8 8 9 10 10 10 10 10 9 8 nan
nan 7 8 8 9 10 10 10 10 10 10 11 11 11 11 12 13 13 13 12 10 8 7 6 8 9 9 8 7 6 6 8 8 8 7 7 7 6 5 5 5 5 5 5 7 8 10 9 7 8 8 9 9 10 11 12 11 10 9 9 9 10 10 10 9 9 9 8 nan
nan 9 8 8 9 9 9 9 10 11 12 12 10 9 10 11 11 12 11 11 11 10 10 10 10 10 9 8 7 7 7 8 7 7 7 8 8 6 4 5 5 6 7 7 8 8 8 9 8 8 8 8 9 11 12 12 11 10 9 9 9 9 10 10 9 9 9 9 nan
nan 8 8 9 10 10 10 10 12 13 12 11 10 9 10 10 9 8 9 9 10 11 11 12 10 9 9 8 8 8 8 7 7 7 7 7 6 5 5 6 7 8 9 10 10 10 8 8 8 8 8 9 9 10 11 12 10 9 9 10 9 9 8 9 9 9 9 10 nan
nan 7 8 9 10 10 11 12 12 12 11 10 10 11 11 11 10 8 8 8 10 11 11 10 9 8 8 8 7 8 8 7 7 7 7 6 6 5 5 7 8 8 8 9 11 12 10 9 8 7 8 10 11 10 10 10 10 9 9 9 9 8 8 8 9 9 9 9 nan
nan 7 9 10 11 11 12 11 10 10 10 10 10 11 12 12 11 10 10 11 11 10 10 10 9 8 7 7 7 7 7 7 7 7 7 6 6 6 6 6 7 7 7 6 9 10 10 9 9 9 8 9 12 12 11 10 10 9 8 8 9 8 7 7 8 8 9 9 nan
nan 10 11 12 12 12 11 10 9 8 8 9 10 10 11 11 12 12 12 13 11 8 7 8 9 8 7 7 7 7 7 7 7 7 7 6 6 6 6 6 6 7 7 6 8 9 10 9 10 10 9 8 10 11 11 10 9 9 8 7 7 7 6 6 6 7 8 8 nan
nan 11 12 12 13 11 10 9 9 8 8 8 9 9 9 10 11 11 10 10 10 8 7 8 9 9 9 8 8 8 8 9 8 8 7 7 7 7 7 7 8 8 8 9 10 10 11 12 12 11 9 8 8 9 10 10 8 7 6 6 5 5 5 6 6 6 6 7 nan
nan 11 12 12 11 10 9 9 9 9 8 8 9 9 8 9 10 10 9 7 8 8 8 9 9 10 10 9 9 9 9 9 8 8 7 7 7 7 8 8 9 9 10 11 11 12 12 12 12 12 10 9 8 9 9 9 7 6 6 5 4 4 5 7 7 6 6 5 nan
nan 11 11 11 10 10 9 9 8 8 8 8 9 9 8 8 9 10 9 7 7 7 8 9 9 9 9 8 8 7 7 7 7 7 7 7 7 8 8 8 9 10 11 11 12 12 13 12 11 11 10 9 9 8 8 7 6 6 6 6 6 6 7 8 9 8 7 7 nan
nan 10 10 10 10 10 10 9 8 8 8 8 9 9 8 7 8 8 8 7 6 7 7 7 8 8 8 7 7 6 7 6 7 7 7 8 8 8 9 9 10 11 12 11 11 10 10 10 10 10 9 9 9 8 7 6 6 7 7 7 8 8 9 9 9 9 9 8 nan
nan 9 10 10 11 10 9 8 8 9 9 9 8 8 7 7 7 7 7 6 7 7 8 6 6 7 7 7 7 7 7 8 8 8 9 9 9 9 10 10 11 12 12 11 9 8 8 8 9 9 9 9 8 8 8 7 8 8 8 9 9 9 9 9 9 9 9 9 nan
nan 9 10 11 11 10 9 8 9 9 9 8 7 7 7 7 7 7 7 6 7 7 7 6 6 6 7 6 6 7 8 9 9 9 9 10 10 10 11 11 11 11 11 10 9 8 8 8 8 8 9 9 9 9 9 9 9 9 9 9 9 9 9 9 10 10 10 10 nan
nan 10 10 11 10 9 8 8 8 8 8 7 7 7 7 7 7 6 6 6 7 8 7 7 6 6 7 7 6 6 8 10 9 9 9 10 11 11 11 11 11 10 10 10 9 9 9 9 9 8 8 8 9 9 9 9 9 9 9 10 10 10 10 10 10 10 10 10 nan
nan 9 9 10 10 9 8 7 7 7 7 8 8 7 6 6 6 7 7 7 7 8 8 8 7 6 7 7 6 6 7 9 9 10 10 10 10 10 10 10 10 10 10 10 9 9 9 10 10 9 9 9 8 8 9 9 9 9 9 10 10 10 10 10 10 11 11 11 nan
nan 9 9 10 9 9 7 7 8 8 8 8 8 6 5 6 7 7 6 7 9 9 9 8 7 7 7 7 7 7 7 8 10 11 11 11 11 11 11 11 10 10 10 9 10 10 10 10 10 10 10 10 9 9 9 9 9 9 9 9 9 10 10 11 11 11 12 12 nan
nan 10 11 10 9 9 8 9 9 8 8 7 6 5 5 7 8 7 7 8 9 9 9 9 8 8 8 8 8 8 9 9 10 11 11 11 11 11 11 11 10 9 9 9 10 10 11 11 10 10 10 10 9 9 9 9 9 9 10 9 9 10 11 12 12 13 13 13 nan
nan 10 11 11 11 10 10 10 9 8 7 6 6 6 6 7 7 8 9 9 9 10 9 9 10 10 10 10 11 11 10 9 10 10 11 11 10 10 10 10 9 9 9 10 10 9 9 10 10 10 10 10 10 10 10 10 10 10 10 10 10 11 11 12 12 12 12 12 nan
nan 10 11 12 13 11 10 10 9 7 7 6 6 6 7 7 8 9 10 10 10 10 10 10 11 12 12 13 14 13 12 10 9 9 10 10 9 9 9 9 9 10 10 10 6 4 5 7 8 10 11 11 11 11 11 12 12 11 11 11 11 11 11 11 11 10 10 9 nan
nan 10 11 12 12 11 10 9 8 7 6 6 7 7 7 9 10 10 10 10 10 11 11 11 11 12 13 13 13 13 13 12 10 8 8 8 8 8 9 8 9 10 10 6 2 3 4 4 5 7 10 10 11 12 12 13 13 12 12 11 11 10 9 9 9 9 9 9 nan
nan 10 10 10 10 9 9 7 7 6 5 6 7 8 9 11 11 11 11 10 10 11 11 11 11 11 11 11 11 11 12 12 10 8 6 7 7 8 8 9 9 9 8 3 4 5 5 5 6 8 9 11 11 12 12 13 13 12 12 11 10 8 7 6 7 7 7 8 nan
nan 10 9 9 9 8 7 5 5 5 5 6 7 9 10 12 12 11 11 10 10 10 10 10 10 10 10 10 9 9 9 8 8 8 8 9 9 9 9 10 10 8 5 2 4 5 6 7 8 10 12 14 13 13 12 11 11 11 11 10 9 8 6 6 6 7 7 8 nan
nan 8 8 9 8 7 6 5 5 6 5 6 9 11 12 11 11 10 10 10 10 9 9 10 11 10 9 7 6 6 7 7 8 9 10 11 11 10 10 9 8 5 2 1 4 6 8 9 11 13 16 15 15 14 12 10 10 10 10 9 9 8 8 8 8 9 9 10 nan
nan 7 8 8 7 6 6 7 8 8 8 10 12 12 12 11 11 10 10 9 9 9 10 10 10 8 6 5 6 7 7 8 9 10 10 10 11 11 10 9 8 6 3 3 6 9 10 12 14 14 13 15 17 13 10 9 9 9 9 8 8 8 8 8 8 9 9 11 nan
nan 8 9 8 7 7 8 9 11 12 13 14 14 12 11 11 10 9 9 8 9 9 8 8 7 6 6 7 7 7 7 8 9 10 10 10 9 9 9 10 9 7 4 5 8 10 12 13 13 13 10 13 16 12 9 7 7 7 8 7 8 8 8 9 9 9 9 9 nan
nan 8 9 8 8 8 9 11 14 16 16 15 13 12 11 10 9 8 8 8 7 7 7 7 6 7 7 8 8 7 7 8 10 11 12 11 9 9 9 9 8 7 5 6 9 11 12 11 10 8 7 11 16 13 10 9 8 8 7 7 7 8 9 11 11 11 9 7 nan
nan 10 10 10 9 10 11 13 16 15 15 13 12 11 10 9 8 7 7 7 7 7 7 6 6 7 7 8 8 8 8 10 11 12 13 13 12 11 10 10 10 8 5 6 9 10 10 8 7 6 5 12 17 15 12 10 10 10 9 9 10 10 10 9 9 10 9 8 nan
nan 13 13 13 13 13 13 13 13 13 12 11 11 10 10 9 7 7 7 7 8 7 7 7 7 8 8 9 9 9 11 14 14 14 13 12 12 10 10 11 11 8 5 7 9 8 7 5 5 5 6 14 20 17 13 11 11 10 10 10 11 11 11 9 8 8 8 8 nan
nan 15 15 15 14 13 12 11 12 12 11 10 9 9 8 8 7 8 8 8 8 8 7 8 9 9 9 9 10 12 13 14 14 14 13 12 11 9 9 10 9 6 5 7 7 6 4 4 4 5 8 19 23 17 13 11 10 8 8 8 9 11 12 12 9 8 8 9 nan
nan 16 15 14 13 12 12 12 11 10 10 8 8 8 8 8 8 8 8 8 8 7 8 8 9 10 10 12 13 14 14 12 12 12 12 11 9 9 9 9 8 6 6 6 5 4 3 3 4 6 14 24 23 16 12 11 10 9 8 7 9 11 12 11 10 10 11 13 nan
nan 16 15 13 13 12 12 11 10 9 8 7 8 8 8 8 8 8 8 9 8 8 8 9 10 11 12 14 15 15 13 12 11 10 10 9 9 9 9 10 8 7 6 5 4 2 2 3 4 9 19 26 20 14 12 12 11 10 9 9 11 13 13 12 12 13 14 17 nan
nan 13 11 10 11 10 10 9 8 7 7 7 7 8 8 8 9 9 10 10 9 9 10 12 12 12 13 14 13 13 12 10 10 9 9 9 10 9 9 9 9 8 7 4 3 2 2 3 5 12 22 24 16 12 11 12 11 10 9 11 13 14 14 15 15 16 16 14 nan
nan 10 8 8 8 8 8 7 7 6 6 7 7 7 8 9 10 11 12 12 12 12 12 13 14 13 12 11 11 11 11 10 10 9 9 10 10 10 8 8 8 8 7 3 1 1 1 3 6 12 21 21 14 12 12 11 9 8 8 11 13 13 14 14 15 15 13 6 nan
nan 8 7 7 7 7 7 7 6 6 7 7 7 8 9 10 10 12 13 15 15 15 14 13 12 10 10 9 9 9 10 11 11 10 10 10 10 9 7 7 7 7 6 3 1 0 1 2 6 10 21 22 16 13 12 10 9 8 8 10 11 12 14 14 13 11 9 2 nan
nan 7 6 6 7 6 6 6 6 7 8 8 9 10 12 12 12 12 13 15 15 14 12 10 9 8 9 9 9 9 9 11 12 12 11 10 9 9 8 8 7 6 6 4 1 -0 -0 2 5 10 22 24 16 13 11 10 8 7 7 8 10 12 15 14 11 9 8 6 nan
nan nan nan nan nan nan nan nan nan nan nan nan nan nan nan nan nan nan nan nan nan nan nan nan nan nan nan nan nan nan nan nan nan nan nan nan nan nan nan nan nan nan nan nan nan nan nan nan nan nan nan nan nan nan nan nan nan nan nan nan nan nan nan nan nan nan nan nan nan
CAPE
nan nan nan nan nan nan nan nan nan nan nan nan nan nan nan nan nan nan nan nan nan nan nan nan nan nan nan nan nan nan nan nan nan nan nan nan nan nan nan nan nan nan nan nan nan nan nan nan nan nan nan nan nan nan nan nan nan nan nan nan nan nan nan nan nan nan nan nan nan
nan nan nan nan nan nan nan nan nan nan nan nan nan nan nan nan nan nan nan nan nan nan nan nan nan nan nan nan nan nan nan nan nan nan nan nan nan nan nan nan nan nan nan nan nan nan nan nan nan nan nan nan nan nan nan nan nan nan nan nan nan nan nan nan nan nan nan nan nan
nan nan nan nan nan nan nan nan nan nan nan nan nan nan nan nan nan nan nan nan nan nan nan nan nan nan nan nan nan nan nan nan nan nan nan nan nan nan nan nan nan nan nan nan nan nan nan nan nan nan nan nan nan nan nan nan nan nan nan nan nan nan nan nan nan nan nan nan nan
nan nan nan nan nan nan nan nan nan nan nan nan nan nan nan nan nan nan nan nan nan nan nan nan nan nan nan nan nan nan nan nan nan nan nan nan nan nan nan nan nan nan nan nan nan nan nan nan nan nan nan nan nan nan nan nan nan nan nan nan nan nan nan nan nan nan nan nan nan
nan nan nan nan nan nan nan nan nan nan nan nan nan nan nan nan nan nan nan nan nan nan nan nan nan nan nan nan nan nan nan nan nan nan nan nan nan nan nan nan nan nan nan nan nan nan nan nan nan nan nan nan nan nan nan nan nan nan nan nan nan nan nan nan nan nan nan nan nan
nan nan nan nan nan nan nan nan nan nan nan nan nan nan nan nan nan nan nan nan nan nan nan nan nan nan nan nan nan nan nan nan nan nan nan nan nan nan nan nan nan nan nan nan nan nan nan nan nan nan nan nan nan nan nan nan nan nan nan nan nan nan nan nan nan nan nan nan nan
nan nan nan nan nan nan nan nan nan nan nan nan nan nan nan nan nan nan nan nan nan nan nan nan nan nan nan nan nan nan nan nan nan nan nan nan nan nan nan nan nan nan nan nan nan nan nan nan nan nan nan nan nan nan nan nan nan nan nan nan nan nan nan nan nan nan nan nan nan
nan nan nan nan nan nan nan nan nan nan nan nan nan nan nan nan nan nan nan nan nan nan nan nan nan nan nan nan nan nan nan nan nan nan nan nan nan nan nan nan nan nan nan nan nan nan nan nan nan nan nan nan nan nan nan nan nan nan nan nan nan nan nan nan nan nan nan nan nan
nan nan nan nan nan nan nan nan nan nan nan nan nan nan nan nan nan nan nan nan nan nan nan nan nan nan nan nan nan nan nan nan nan nan nan nan nan nan nan nan nan nan nan nan nan nan nan nan nan nan nan nan nan nan nan nan nan nan nan nan nan nan nan nan nan nan nan nan nan
nan nan nan nan nan nan nan nan nan nan nan nan nan nan nan nan nan nan nan nan nan nan nan nan nan nan nan nan nan nan nan nan nan nan nan nan nan nan nan nan nan nan nan nan nan nan nan nan nan nan nan nan nan nan nan nan nan nan nan nan nan nan nan nan nan nan nan nan nan
nan nan nan nan nan nan nan nan nan nan nan nan nan nan nan nan nan nan nan nan nan nan nan nan nan nan nan nan nan nan nan nan nan nan nan nan nan nan nan nan nan nan nan nan nan nan nan nan nan nan nan nan nan nan nan nan nan nan nan nan nan nan nan nan nan nan nan nan nan
nan nan nan nan nan nan nan nan nan nan nan nan nan nan nan nan nan nan nan nan nan nan nan nan nan nan nan nan nan nan nan nan nan nan nan nan nan nan nan nan nan nan nan nan nan nan nan nan nan nan nan nan nan nan nan nan nan nan nan nan nan nan nan nan nan nan nan nan nan
nan nan nan nan nan nan nan nan nan nan nan nan nan nan nan nan nan nan nan nan nan nan nan nan nan nan nan nan nan nan nan nan nan nan nan nan nan nan nan nan nan nan nan nan nan nan nan nan nan nan nan nan nan nan nan nan nan nan nan nan nan nan nan nan nan nan nan nan nan
nan nan nan nan nan nan nan nan nan nan nan nan nan nan nan nan nan nan nan nan nan nan nan nan nan nan nan nan nan nan nan nan nan nan nan nan nan nan nan nan nan nan nan nan nan nan nan nan nan nan nan nan nan nan nan nan nan nan nan nan nan nan nan nan nan nan nan nan nan
nan nan nan nan nan nan nan nan nan nan nan nan nan nan nan nan nan nan nan nan nan nan nan nan nan nan nan nan nan nan nan nan nan nan nan nan nan nan nan nan nan nan nan nan nan nan nan nan nan nan nan nan nan nan nan nan nan nan nan nan nan nan nan nan nan nan nan nan nan
nan nan nan nan nan nan nan nan nan nan nan nan nan nan nan nan nan nan nan nan nan nan nan nan nan nan nan nan nan nan nan nan nan nan nan nan nan nan nan nan nan nan nan nan nan nan nan nan nan nan nan nan nan nan nan nan nan nan nan nan nan nan nan nan nan nan nan nan nan
nan nan nan nan nan nan nan nan nan nan nan nan nan nan nan nan nan nan nan nan nan nan nan nan nan nan nan nan nan nan nan nan nan nan nan nan nan nan nan nan nan nan nan nan nan nan nan nan nan nan nan nan nan nan nan nan nan nan nan nan nan nan nan nan nan nan nan nan nan
nan nan nan nan nan nan nan nan nan nan nan nan nan nan nan nan nan nan nan nan nan nan nan nan nan nan nan nan nan nan nan nan nan nan nan nan nan nan nan nan nan nan nan nan nan nan nan nan nan nan nan nan nan nan nan nan nan nan nan nan nan nan nan nan nan nan nan nan nan
nan nan nan nan nan nan nan nan nan nan nan nan nan nan nan nan nan nan nan nan nan nan nan nan nan nan nan nan nan nan nan nan nan nan nan nan nan nan nan nan nan nan nan nan nan nan nan nan nan nan nan nan nan nan nan nan nan nan nan nan nan nan nan nan nan nan nan nan nan
nan nan nan nan nan nan nan nan nan nan nan nan nan nan nan nan nan nan nan nan nan nan nan nan nan nan nan nan nan nan nan nan nan nan nan nan nan nan nan nan nan nan nan nan nan nan nan nan nan nan nan nan nan nan nan nan nan nan nan nan nan nan nan nan nan nan nan nan nan
nan nan nan nan nan nan nan nan nan nan nan nan nan nan nan nan nan nan nan nan nan nan nan nan nan nan nan nan nan nan nan nan nan nan nan nan nan nan nan nan nan nan nan nan nan nan nan nan nan nan nan nan nan nan nan nan nan nan nan nan nan nan nan nan nan nan nan nan nan
nan nan nan nan nan nan nan nan nan nan nan nan nan nan nan nan nan nan nan nan nan nan nan nan nan nan nan nan nan nan nan nan nan nan nan nan nan nan nan nan nan nan nan nan nan nan nan nan nan nan nan nan nan nan nan nan nan nan nan nan nan nan nan nan nan nan nan nan nan
nan nan nan nan nan nan nan nan nan nan nan nan nan nan nan nan nan nan nan nan nan nan nan nan nan nan nan nan nan nan nan nan nan nan nan nan nan nan nan nan nan nan nan nan nan nan nan nan nan nan nan nan nan nan nan nan nan nan nan nan nan nan nan nan nan nan nan nan nan
nan nan nan nan nan nan nan nan nan nan nan nan nan nan nan nan nan nan nan nan nan nan nan nan nan nan nan nan nan nan nan nan nan nan nan nan nan nan nan nan nan nan nan nan nan nan nan nan nan nan nan nan nan nan nan nan nan nan nan nan nan nan nan nan nan nan nan nan nan
nan nan nan nan nan nan nan nan nan nan nan nan nan nan nan nan nan nan nan nan nan nan nan nan nan nan nan nan nan nan nan nan nan nan nan nan nan nan nan nan nan nan nan nan nan nan nan nan nan nan nan nan nan nan nan nan nan nan nan nan nan nan nan nan nan nan nan nan nan
nan nan nan nan nan nan nan nan nan nan nan nan nan nan nan nan nan nan nan nan nan nan nan nan nan nan nan nan nan nan nan nan nan nan nan nan nan nan nan nan nan nan nan nan nan nan nan nan nan nan nan nan nan nan nan nan nan nan nan nan nan nan nan nan nan nan nan nan nan
nan nan nan nan nan nan nan nan nan nan nan nan nan nan nan nan nan nan nan nan nan nan nan nan nan nan nan nan nan nan nan nan nan nan nan nan nan nan nan nan nan nan nan nan nan nan nan nan nan nan nan nan nan nan nan nan nan nan nan nan nan nan nan nan nan nan nan nan nan
nan nan nan nan nan nan nan nan nan nan nan nan nan nan nan nan nan nan nan nan nan nan nan nan nan nan nan nan nan nan nan nan nan nan nan nan nan nan nan nan nan nan nan nan nan nan nan nan nan nan nan nan nan nan nan nan nan nan nan nan nan nan nan nan nan nan nan nan nan
nan nan nan nan nan nan nan nan nan nan nan nan nan nan nan nan nan nan nan nan nan nan nan nan nan nan nan nan nan nan nan nan nan nan nan nan nan nan nan nan nan nan nan nan nan nan nan nan nan nan nan nan nan nan nan nan nan nan nan nan nan nan nan nan nan nan nan nan nan
nan nan nan nan nan nan nan nan nan nan nan nan nan nan nan nan nan nan nan nan nan nan nan nan nan nan nan nan nan nan nan nan nan nan nan nan nan nan nan nan nan nan nan nan nan nan nan nan nan nan nan nan nan nan nan nan nan nan nan nan nan nan nan nan nan nan nan nan nan
nan nan nan nan nan nan nan nan nan nan nan nan nan nan nan nan nan nan nan nan nan nan nan nan nan nan nan nan nan nan nan nan nan nan nan nan nan nan nan nan nan nan nan nan nan nan nan nan nan nan nan nan nan nan nan nan nan nan nan nan nan nan nan nan nan nan nan nan nan
nan nan nan nan nan nan nan nan nan nan nan nan nan nan nan nan nan nan nan nan nan nan nan nan nan nan nan nan nan nan nan nan nan nan nan nan nan nan nan nan nan nan nan nan nan nan nan nan nan nan nan nan nan nan nan nan nan nan nan nan nan nan nan nan nan nan nan nan nan
nan nan nan nan nan nan nan nan nan nan nan nan nan nan nan nan nan nan nan nan nan nan nan nan nan nan nan nan nan nan nan nan nan nan nan nan nan nan nan nan nan nan nan nan nan nan nan nan nan nan nan nan nan nan nan nan nan nan nan nan nan nan nan nan nan nan nan nan nan
nan nan nan nan nan nan nan nan nan nan nan nan nan nan nan nan nan nan nan nan nan nan nan nan nan nan nan nan nan nan nan nan nan nan nan nan nan nan nan nan nan nan nan nan nan nan nan nan nan nan nan nan nan nan nan nan nan nan nan nan nan nan nan nan nan nan nan nan nan
nan nan nan nan nan nan nan nan nan nan nan nan nan nan nan nan nan nan nan nan nan nan nan nan nan nan nan nan nan nan nan nan nan nan nan nan nan nan nan nan nan nan nan nan nan nan nan nan nan nan nan nan nan nan nan nan nan nan nan nan nan nan nan nan nan nan nan nan nan
nan nan nan nan nan nan nan nan nan nan nan nan nan nan nan nan nan nan nan nan nan nan nan nan nan nan nan nan nan nan nan nan nan nan nan nan nan nan nan nan nan nan nan nan nan nan nan nan nan nan nan nan nan nan nan nan nan nan nan nan nan nan nan nan nan nan nan 1 6
nan nan nan nan nan nan nan nan nan nan nan nan nan nan nan nan nan nan nan nan nan nan nan nan nan nan nan nan nan nan nan nan nan nan nan nan nan nan nan nan nan nan nan nan nan nan nan nan nan nan nan nan nan nan nan nan nan nan nan nan nan nan nan nan nan nan 2 20 12
nan nan nan nan nan nan nan nan nan nan nan nan nan nan nan nan nan nan nan nan nan nan nan nan nan nan nan nan nan nan nan nan nan nan nan nan nan nan nan nan nan nan nan nan nan nan nan nan nan nan nan nan nan nan nan nan nan nan nan nan nan nan nan nan 7 7 25 0 nan
nan nan nan nan nan nan nan nan nan nan nan nan nan nan nan nan nan nan nan nan nan nan nan nan nan nan nan nan nan nan nan nan nan nan nan nan nan nan nan nan nan nan nan nan nan nan nan nan nan nan nan nan nan nan nan nan nan nan nan nan nan nan nan 1 3 3 nan nan nan
nan nan nan nan nan nan nan nan nan nan nan nan nan nan nan nan nan nan nan nan nan nan nan nan nan nan nan nan nan nan nan nan nan nan nan nan nan nan nan nan nan nan nan nan nan nan nan nan nan nan 0 nan nan nan nan nan nan nan nan nan nan nan nan nan nan nan nan nan 3
nan nan nan nan nan nan nan nan nan nan nan nan nan nan nan nan nan nan nan nan nan nan nan nan nan nan nan nan nan nan nan nan nan nan nan nan nan nan nan nan nan nan nan nan nan nan nan nan nan nan 1 nan nan nan nan nan nan nan nan nan nan 1 1 nan nan nan nan nan nan